Location: Unspecified
(0.0000°N, 0.0000°E)
Time: 12:54:20
(UTC+01:00)

Cosmos 1954 Rocket - Visible Passes

Search period start: 08 December 2016 00:00
Search period end: 18 December 2016 00:00
Orbit: 753 x 781 km, 74.0° (Epoch: 07 December)

Date Brightness Start Highest point End Pass type
(mag) Time Alt. Az. Time Alt. Az. Time Alt. Az.
11 Dec 5.9 20:17:46 14° SE 20:17:46 14° SE 20:18:36 10° SE visible
11 Dec 6.6 21:57:49 16° SW 21:57:49 16° SW 21:59:42 10° SW visible
12 Dec 5.8 19:37:41 11° E 19:37:41 11° E 19:38:52 10° E visible
12 Dec 5.2 21:17:34 32° WNW 21:18:55 38° WSW 21:23:43 10° S visible
13 Dec 4.0 20:36:32 10° NNW 20:41:41 81° WSW 20:46:53 10° S visible
14 Dec 4.1 19:59:30 10° N 20:04:27 48° ENE 20:09:27 10° SSE visible
15 Dec 5.0 19:23:12 10° NNE 19:27:14 23° ENE 19:31:16 10° SE visible
15 Dec 6.5 21:05:17 10° WNW 21:08:58 20° WSW 21:12:41 10° SSW visible
16 Dec 5.3 20:26:54 10° NNW 20:31:43 40° WSW 20:36:35 10° S visible
17 Dec 4.0 19:49:19 10° NNW 19:54:29 86° WSW 19:59:42 10° S visible
